Location: Unspecified
(0.0000°N, 0.0000°E)
Time: 21:32:19
(UTC+02:00)

Ariane H10-3 - Visible Passes

Search period start: 21 August 2017 00:00
Search period end: 31 August 2017 00:00
Orbit: 198 x 19774 km, 7.3° (Epoch: 20 August)

Date Brightness Start Highest point End Pass type
(mag) Time Alt. Az. Time Alt. Az. Time Alt. Az.
21 Aug 8.7 03:05:48 10° W 07:19:13 87° S 07:45:53 10° E visible
21 Aug 6.1 19:48:13 10° W 19:55:05 89° N 20:58:21 14° E visible
22 Aug 9.2 02:03:03 10° W 06:03:03 85° S 06:49:35 10° E visible
23 Aug 9.0 01:02:39 10° W 04:07:30 82° S 05:51:30 10° E visible
24 Aug 8.7 00:03:22 10° W 02:17:58 74° SE 04:51:00 10° E visible
24 Aug 8.6 23:04:33 10° W 23:36:49 80° S 03:46:55 10° E visible
25 Aug 7.1 07:10:21 13° W 09:56:39 78° NNW 10:05:41 10° ENE visible
25 Aug 7.9 22:05:50 10° W 22:25:00 80° S 02:36:39 10° E visible
26 Aug 7.7 04:54:16 10° W 08:53:58 84° N 09:07:33 10° ENE visible
26 Aug 7.1 21:06:58 10° W 21:19:07 82° S 01:12:37 10° E visible
27 Aug 8.4 03:34:37 10° W 07:46:43 89° N 08:08:14 10° E visible
27 Aug 6.4 20:07:46 10° W 20:15:44 84° S 22:48:26 10° E visible
28 Aug 9.1 02:24:13 10° W 06:30:07 88° S 07:07:28 10° E visible
28 Aug 5.5 19:08:07 10° W 19:13:25 90° SSE 19:55:39 10° E visible
29 Aug 9.0 01:17:43 10° W 04:45:57 84° SSE 06:04:54 10° E visible
30 Aug 8.8 00:13:02 10° W 02:27:40 77° SE 04:59:53 10° E visible
